Weather History for Hollywood, FL

Change the Weather History Date:

Tuesday, November 20, 2012

  Actual Average (KFLL) Record (KFLL)
Temperature  
Mean Temperature 66 °F 75 °F  
Max Temperature 71 °F 81 °F 88 °F (1986)
Min Temperature 60 °F 69 °F 44 °F (1968)
Degree Days  
Heating Degree Days 0 0  
Month to date heating degree days 0  
Since 1 July heating degree days 0  
Cooling Degree Days 0 10  
Month to date cooling degree days 226  
Year to date cooling degree days 4420  
Growing Degree Days 16 (Base 50)    
Moisture  
Dew Point 60 °F    
Average Humidity 88    
Maximum Humidity 100    
Minimum Humidity 73    
Precipitation  
Precipitation 0.00 in 0.09 in 1.41 in (1992)
Month to date precipitation 2.37  
Year to date precipitation 58.85  
Snow  
Snow 0.00 in - - ()
Month to date snowfall  
Since 1 July snowfall  
Since 1 September snowfall  
Snow Depth -    
Sea Level Pressure  
Sea Level Pressure 30.02 in    
Wind  
Wind Speed 10 mph (NW)    
Max Wind Speed 17 mph    
Max Gust Speed 23 mph    
Visibility 5 miles    
Events      
T = Trace of Precipitation, MM = Missing Value Source: NWS Daily Summary

Daily Weather History Graph

Daily Weather History Graph

Search for Another Location

Airport:

Trip Planner

Search our weather history database for the weather conditions in past years. The results will help you decide how hot, cold, wet, or windy it might be!

Date:

Astronomy

Nov. 20, 2012 Rise Set
Actual Time 6:43 AM EST 5:30 PM EST
Civil Twilight 6:18 AM EST 5:54 PM EST
Nautical Twilight 5:50 AM EST 6:22 PM EST
Astronomical Twilight 5:22 AM EST 6:50 PM EST
Moon 12:36 PM EST (11/20) No Moon Set
Length of Visible Light 11h 35m
Length of Day
10h 46m
Waxing Crescent, 51% of the Moon is Illuminated
Nov 20
Waxing Crescent
Nov 28
Full
Dec 6
Last Quarter
Dec 13
New
Dec 20
First Quarter

Hourly Weather History & Observations

Time (EST) Temp. Dew Point Humidity Pressure Visibility Wind Dir Wind Speed Gust Speed Precip Events Conditions
12:53 AM 61.0 °F 55.9 °F 83% 30.06 in 10.0 mi NW 10.4 mph - N/A   Overcast
1:53 AM 60.1 °F 55.9 °F 86% 30.04 in 7.0 mi NW 8.1 mph - N/A   Overcast
2:17 AM 60.8 °F 57.2 °F 88% 30.03 in 3.0 mi NW 8.1 mph - N/A   Overcast
2:53 AM 60.1 °F 57.9 °F 93% 30.02 in 3.0 mi NW 5.8 mph - N/A   Overcast
3:53 AM 61.0 °F 57.9 °F 90% 30.02 in 10.0 mi NW 8.1 mph - N/A   Overcast
4:53 AM 61.0 °F 57.9 °F 90% 30.02 in 10.0 mi NNW 9.2 mph - N/A   Overcast
5:01 AM 60.8 °F 57.2 °F 88% 30.01 in 10.0 mi NNW 6.9 mph - N/A   Overcast
5:18 AM 60.8 °F 57.2 °F 88% 30.01 in 7.0 mi NNW 8.1 mph - N/A   Overcast
5:53 AM 60.1 °F 57.9 °F 93% 30.02 in 6.0 mi NNW 10.4 mph - N/A   Overcast
6:46 AM 60.8 °F 59.0 °F 94% 30.03 in 2.0 mi NW 6.9 mph - N/A   Overcast
7:10 AM 60.8 °F 59.0 °F 94% 30.04 in 1.8 mi WNW 6.9 mph - N/A   Overcast
7:30 AM 60.8 °F 59.0 °F 94% 30.05 in 2.5 mi NW 10.4 mph - N/A   Overcast
7:53 AM 60.1 °F 59.0 °F 96% 30.05 in 2.0 mi WNW 9.2 mph - N/A   Overcast
8:02 AM 60.8 °F 59.0 °F 94% 30.05 in 1.0 mi NW 10.4 mph - N/A   Overcast
8:11 AM 60.8 °F 59.0 °F 94% 30.05 in 0.8 mi NW 9.2 mph - N/A   Overcast
8:23 AM 60.8 °F 59.0 °F 94% 30.05 in 1.2 mi NW 10.4 mph - N/A   Overcast
8:51 AM 60.8 °F 60.8 °F 100% 30.06 in 1.0 mi NW 10.4 mph - N/A   Overcast
8:53 AM 61.0 °F 60.1 °F 97% 30.06 in 1.0 mi NW 10.4 mph - N/A   Overcast
9:00 AM 60.8 °F 60.8 °F 100% 30.06 in 1.8 mi NNW 11.5 mph - N/A   Overcast
9:21 AM 60.8 °F 60.8 °F 100% 30.06 in 2.5 mi NW 12.7 mph - N/A   Overcast
9:28 AM 60.8 °F 60.8 °F 100% 30.06 in 3.0 mi NW 16.1 mph - N/A   Overcast
9:40 AM 60.8 °F 60.8 °F 100% 30.06 in 3.0 mi NW 16.1 mph - N/A   Overcast
9:51 AM 62.6 °F 60.8 °F 94% 30.07 in 1.8 mi NNW 17.3 mph 23.0 mph N/A   Overcast
9:53 AM 62.1 °F 60.1 °F 93% 30.07 in 1.5 mi NNW 16.1 mph 23.0 mph N/A   Overcast
10:10 AM 62.6 °F 60.8 °F 94% 30.06 in 3.0 mi NW 11.5 mph - N/A   Overcast
10:53 AM 63.0 °F 60.1 °F 90% 30.06 in 4.0 mi NNW 15.0 mph - N/A   Overcast
11:53 AM 64.0 °F 60.1 °F 87% 30.04 in 5.0 mi NW 12.7 mph - N/A   Overcast
12:43 PM 66.2 °F 60.8 °F 83% 30.01 in 5.0 mi NW 12.7 mph - N/A   Haze
12:53 PM 66.0 °F 61.0 °F 84% 30.01 in 5.0 mi NW 9.2 mph - N/A   Haze
1:53 PM 66.9 °F 61.0 °F 81% 29.98 in 4.0 mi WNW 10.4 mph - N/A   Haze
2:46 PM 69.8 °F 62.6 °F 78% 29.97 in 6.0 mi NW 9.2 mph - N/A   Haze
2:53 PM 69.1 °F 62.1 °F 78% 29.96 in 6.0 mi NW 10.4 mph - N/A   Haze
3:53 PM 71.1 °F 62.1 °F 73% 29.95 in 4.0 mi NW 8.1 mph - N/A   Haze
4:53 PM 71.1 °F 62.1 °F 73% 29.96 in 5.0 mi NW 6.9 mph - N/A   Haze
5:53 PM 70.0 °F 62.1 °F 76% 29.96 in 6.0 mi WNW 4.6 mph - N/A   Haze
6:53 PM 69.1 °F 62.1 °F 78% 29.97 in 8.0 mi NW 8.1 mph - N/A   Clear
7:53 PM 68.0 °F 61.0 °F 78% 29.99 in 10.0 mi NW 8.1 mph - N/A   Scattered Clouds
8:53 PM 68.0 °F 60.1 °F 76% 30.00 in 10.0 mi NW 8.1 mph - N/A   Scattered Clouds
9:53 PM 69.1 °F 60.1 °F 73% 30.01 in 10.0 mi NNW 10.4 mph - N/A   Overcast
10:53 PM 66.9 °F 60.1 °F 79% 30.00 in 10.0 mi NNW 12.7 mph 21.9 mph N/A   Overcast
11:53 PM 66.0 °F 59.0 °F 78% 30.01 in 10.0 mi NNW 16.1 mph - N/A   Overcast